#timestamp,LO_Frequency,Hit,StdDev 
1601049615.7,286047002.4,N
1601049635.5,286047002.5,N
1601049655.4,286047001.6,N
1601049675.2,286047002.5,N
1601049695.0,286046999.8,N
1601049695.9,286046999.8,N
1601049715.8,286047002.3,N
1601049735.6,286047002.1,N
1601049755.4,286047002.5,N
1601049775.3,286047002.2,N
1601049795.1,286047001.9,N
1601049796.0,286047001.9,N
1601049815.8,286046999.7,N
1601049835.7,286047001.5,N
1601049855.5,286047002.0,N
1601049875.3,286047001.6,N
1601049895.2,286047001.6,N
1601049915.9,286047002.5,N
1601049935.7,286047004.2,Y
1601049955.6,286047002.7,P
1601049975.4,286047000.2,N
1601049995.2,286047002.7,N
1601050015.1,286047002.3,N
1601050016.0,286047002.3,N
1601050035.8,286047000.0,N
1601050055.6,286047000.3,N
1601050075.5,286047002.4,N
1601050095.3,286046999.9,N
1601050115.1,286046999.7,N
1601050135.9,286047002.6,N
1601050155.7,286047002.6,N
1601050175.5,286047002.6,N
1601050195.4,286047002.4,N
1601050215.2,286047002.7,N
1601050235.0,286046999.9,N
1601050235.9,286046999.9,N
1601050255.8,286047002.6,N
1601050275.6,286047002.5,N
1601050295.4,286047002.2,N
1601050315.3,286047002.8,N
1601050335.1,286047001.8,N
1601050355.9,286047001.4,N
1601050375.7,286047001.8,N
1601050395.5,286047001.7,N
1601050415.4,286047003.9,Y
1601050435.2,286047000.3,P
1601050455.0,286046999.7,N
1601050455.9,286046999.7,N
1601050475.8,286047002.7,Y
1601050495.6,286046999.8,P
1601050515.4,286047000.2,N
1601050535.3,286047002.7,P
1601050555.1,286047002.4,N
1601050556.0,286047002.4,N
1601050575.8,286046999.8,N
1601050595.7,286047002.3,N
1601050615.5,286047002.5,N
1601050635.3,286047002.1,N
1601050655.2,286047001.3,N
1601050675.9,286046999.7,N
1601050695.7,286047002.1,N
1601050715.6,286047001.6,N
1601050735.4,286047002.2,N
1601050755.2,286047002.6,N
1601050775.1,286047002.3,N
1601050776.0,286047002.3,N
1601050795.8,286047002.3,N
1601050815.6,286047002.8,N
1601050835.5,286047002.6,N
1601050855.3,286046999.8,N
1601050875.1,286047002.0,N
1601050895.9,286047002.3,N
1601050915.7,286047002.1,N
1601050935.5,286047001.6,N
1601050955.4,286047001.4,N
1601050975.2,286047001.6,N
1601050995.0,286047001.7,N
1601050995.9,286047001.7,N
1601051015.8,286047002.2,N
1601051035.6,286047001.9,N
1601051055.4,286047002.0,N
1601051075.3,286047001.9,N
1601051095.1,286047001.7,N
1601051115.9,286047001.9,N
1601051135.7,286047004.3,Y
1601051155.5,286047002.5,P
1601051175.4,286047002.1,P
1601051195.2,286047002.4,P
1601051215.0,286047002.6,Y
1601051215.9,286047002.6,P
1601051235.8,286046998.5,P
1601051255.6,286046998.3,N
1601051275.4,286046998.7,N
1601051295.3,286047001.2,N
1601051315.1,286047001.2,N
1601051316.0,286047001.2,N
1601051335.8,286046998.2,N
1601051355.7,286046998.8,N
1601051375.5,286046999.5,N
1601051395.3,286046998.9,N
1601051415.2,286046999.2,N
1601051435.0,286046998.7,N
1601051435.9,286046998.7,N
1601051455.7,286046998.5,N
1601051475.6,286046998.4,N
1601051495.4,286046998.2,N
1601051515.2,286046998.5,N
1601051535.1,286046998.1,N
1601051536.0,286046998.1,N
1601051555.8,286046998.8,N
1601051575.6,286046998.1,N
1601051595.5,286046998.9,N
1601051615.3,286046998.9,N
1601051635.1,286047001.2,N
1601051655.9,286046999.0,N
1601051675.7,286046998.5,N
1601051695.6,286046998.9,N
1601051715.4,286046998.4,N
1601051735.2,286047001.1,N
1601051755.1,286046998.3,N
1601051756.0,286046998.3,N
1601051775.8,286046998.9,N
1601051795.6,286047001.1,N
1601051815.5,286046998.8,N
1601051835.3,286046998.8,N
1601051855.1,286046999.0,N
1601051875.9,286046998.3,N
1601051895.7,286046998.4,N
1601051915.5,286046998.9,N
1601051935.4,286046999.5,N
1601051955.2,286046999.4,N
1601051975.0,286046996.5,Y
1601051975.9,286046996.5,P
1601051995.8,286046999.5,N
1601052015.6,286046998.9,N
1601052035.4,286046999.4,N
1601052055.3,286046999.5,N
1601052075.1,286046999.4,N
1601052095.8,286046996.6,Y
1601052115.7,286046999.0,P
1601052135.5,286046998.9,P
1601052155.3,286046998.3,P
1601052175.2,286046998.4,Y
1601052195.0,286047000.2,P
1601052195.9,286047000.2,N
1601052215.7,286047000.4,N
1601052235.6,286047000.8,N
1601052255.4,286046998.2,N
1601052275.2,286047000.9,N
1601052295.1,286047001.0,N
1601052296.0,286047001.0,N
1601052315.8,286047001.1,N
1601052335.7,286046999.0,N
1601052355.5,286046998.4,N
1601052375.3,286046998.3,N
1601052395.2,286046998.1,N
1601052415.9,286046998.8,N
1601052435.7,286046998.6,N
1601052455.6,286046999.0,N
1601052475.4,286046999.3,N
1601052495.2,286046998.7,N
1601052515.1,286046999.4,N
1601052516.0,286046999.4,N
1601052535.8,286046998.4,N
1601052555.6,286046998.7,N
1601052575.5,286046996.5,Y
1601052595.3,286046998.3,P
1601052615.1,286046999.3,N
1601052635.9,286046998.5,P
1601052655.7,286046999.4,N
1601052675.5,286046996.5,Y
1601052695.4,286046999.3,P
1601052715.2,286046999.2,P
1601052735.0,286046999.4,P
1601052735.9,286046999.4,Y
1601052755.8,286046999.3,P
1601052775.6,286046998.2,P
1601052795.4,286046998.8,N
1601052815.3,286046998.7,Y
1601052835.1,286047000.3,P
1601052855.8,286047000.5,N
1601052875.7,286047002.8,P
1601052895.5,286047000.9,N
1601052915.3,286047001.2,N
1601052935.2,286047001.1,N
1601052955.0,286047001.1,N
1601052955.9,286047001.1,N
1601052975.7,286047001.2,N
1601052995.6,286047001.0,N
1601053015.4,286047001.1,N
1601053035.2,286046999.9,N
1601053055.1,286047000.7,N
1601053056.0,286047000.7,N
1601053075.8,286046998.8,N
1601053095.7,286047000.9,N
1601053115.5,286046998.6,N
1601053135.3,286046998.5,N
1601053155.2,286047000.7,N
1601053175.9,286046998.2,N
1601053195.7,286047000.7,N
